This demonstration page uses our WeatherBlox Daily Observations layout. Learn more.

Left ArrowRight Arrow

Hourly Observations for April 1, 2021

Temp ( °F °C ) Dew Point ( °F °C ) Humidity (%) Winds ( mph kmh ) Pressure ( in mb ) Visibility ( mi km ) Precip ( " mm )
12:21 am 00:21 Cloudy 64 17.8 61 16.1 90 90 WNW 7 11 29.85 1011 10 16 0.00 0.00
12:59 am 00:59 Cloudy 63 17.2 61 16.1 93 93 W 7 11 29.84 1011 10 16 0.00 0.00
1:06 am 01:06 Cloudy 63 17.2 61 16.1 93 93 SW 3 6 29.83 1010 10 16 0.00 0.00
1:59 am 01:59 Cloudy with Mist and Fog 62 16.7 60 15.6 93 93 W 5 7 29.80 1009 6 10 0.00 0.00
2:59 am 02:59 Cloudy 62 16.7 60 15.6 93 93 NW 6 9 29.78 1009 9 14 0.00 0.00
3:59 am 03:59 Cloudy 61 16.1 59 15 93 93 NW 12 19 29.78 1009 10 16 0.00 0.00
4:33 am 04:33 Cloudy with Light Rain 54 12.2 49 9.4 83 83 N 21 33 29.81 1009 7 11 0.00 0.00
4:59 am 04:59 Cloudy with Light Rain 51 10.6 47 8.3 86 86 N 23 37 29.83 1010 3 5 0.03 0.76
5:59 am 05:59 Cloudy with Light Rain 49 9.4 46 7.8 90 90 N 17 28 29.88 1012 3 5 0.03 0.76
6:12 am 06:12 Cloudy with Light Rain 49 9.4 45 7.2 86 86 NNW 22 35 29.89 1012 4 6 0.01 0.25
6:29 am 06:29 Cloudy 49 9.4 44 6.7 83 83 NNW 16 26 29.90 1013 10 16 0.01 0.25
6:59 am 06:59 Cloudy 48 8.9 43 6.1 83 83 NNW 23 37 29.93 1014 8 13 0.01 0.25
7:19 am 07:19 Cloudy with Light Rain 48 8.9 43 6.1 83 83 NNW 23 37 29.94 1014 3 5 0.00 0.00
7:52 am 07:52 Cloudy 47 8.3 40 4.4 77 77 NNW 20 31 29.97 1015 10 16 0.00 0.00
7:59 am 07:59 Cloudy 47 8.3 40 4.4 77 77 NNW 20 31 29.96 1015 10 16 0.00 0.00
8:18 am 08:18 Cloudy 47 8.3 41 5 80 80 NNW 21 33 29.97 1015 10 16 0.00 0.00
8:57 am 08:57 Cloudy 45 7 39 4 81 81 NNW 23 37 29.97 1015 10 16 0.01 0.25
8:59 am 08:59 Cloudy 46 7.8 40 4.4 79 79 NNW 23 37 29.97 1015 10 16 0.01 0.25
9:59 am 09:59 Cloudy 45 7.2 40 4.4 83 83 NNW 15 24 29.98 1015 10 16 0.00 0.00
10:59 am 10:59 Cloudy 47 8.3 38 3.3 71 71 NNW 18 30 29.99 1016 10 16 0.00 0.00
11:06 am 11:06 Cloudy 47 8.3 38 3.3 71 71 NNW 17 28 30.00 1016 10 16 0.00 0.00
11:59 am 11:59 Partly Cloudy 50 10 38 3.3 63 63 NNW 17 28 30.00 1016 10 16 0.00 0.00
12:59 pm 12:59 Mostly Cloudy 51 10.6 34 1.1 52 52 NNW 17 28 30.00 1016 10 16 0.00 0.00
1:59 pm 13:59 Cloudy 52 11.1 33 0.6 49 49 NW 14 22 29.99 1016 10 16 0.00 0.00
2:59 pm 14:59 Cloudy 51 10.6 30 -1.1 44 44 NW 15 24 29.99 1016 10 16 0.00 0.00
3:59 pm 15:59 Cloudy 52 11.1 31 -0.6 45 45 NNW 16 26 29.99 1016 10 16 0.00 0.00
4:59 pm 16:59 Cloudy 53 11.7 28 -2.2 38 38 NW 15 24 29.99 1016 10 16 0.00 0.00
5:59 pm 17:59 Cloudy 51 10.6 27 -2.8 39 39 NNW 20 31 30.02 1017 10 16 0.00 0.00
6:59 pm 18:59 Cloudy 49 9.4 28 -2.2 44 44 NNW 22 35 30.05 1018 10 16 0.00 0.00
7:59 pm 19:59 Cloudy 48 8.9 25 -3.9 41 41 NW 14 22 30.08 1019 10 16 0.00 0.00
8:59 pm 20:59 Cloudy 47 8.3 25 -3.9 42 42 NNW 20 31 30.12 1020 10 16 0.00 0.00
9:59 pm 21:59 Cloudy 45 7.2 26 -3.3 48 48 NNW 18 30 30.15 1021 10 16 0.00 0.00
10:59 pm 22:59 Cloudy 44 6.7 27 -2.8 51 51 NNW 18 30 30.16 1021 10 16 0.00 0.00
11:59 pm 23:59 Cloudy 43 6.1 22 -5.6 43 43 NNW 23 37 30.16 1022 10 16 0.00 0.00

Powered by AerisWeather